| time (UTC) | temp F | wind direction | speed MPH | gust MPH | rain 1hr in | rain 24hr in | rain mn in | humidity % | barometer mb |
| 20260510104543 | 71 | 79 | 3.0 | 5.0 | 0.00 | 0.07 | 0.07 | 68 | 1009.2 |
| 20260510104347 | 71 | 89 | 3.0 | 5.0 | 0.00 | 0.07 | 0.07 | 70 | 1009.2 |
| 20260510103543 | 71 | 121 | 3.0 | 5.0 | 0.00 | 0.07 | 0.07 | 70 | 1009.1 |
| 20260510103042 | 71 | 350 | 0.0 | 6.0 | 0.00 | 0.07 | 0.07 | 69 | 1009.2 |
| 20260510102542 | 70 | 76 | 0.0 | 6.0 | 0.00 | 0.07 | 0.07 | 72 | 1009.1 |
| 20260510102356 | 70 | 75 | 1.0 | 5.0 | 0.00 | 0.07 | 0.07 | 72 | 1009.3 |
| 20260510101540 | 69 | 75 | 2.0 | 5.0 | 0.00 | 0.07 | 0.07 | 72 | 1009.3 |
| 20260510101042 | 70 | 90 | 1.0 | 5.0 | 0.00 | 0.07 | 0.07 | 74 | 1009.3 |
| 20260510100540 | 69 | 116 | 3.0 | 5.0 | 0.00 | 0.07 | 0.07 | 71 | 1009.3 |
| 20260510100042 | 69 | 17 | 0.0 | 2.0 | 0.00 | 0.07 | 0.07 | 73 | 1009.3 |
| 20260510095850 | 68 | 72 | 1.0 | 5.0 | 0.00 | 0.07 | 0.07 | 76 | 1009.3 |
| 20260510095043 | 67 | 100 | 2.0 | 7.0 | 0.00 | 0.07 | 0.07 | 75 | 1009.3 |
| 20260510094850 | 68 | 99 | 4.0 | 7.0 | 0.00 | 0.07 | 0.07 | 74 | 1009.2 |
| 20260510094348 | 68 | 96 | 1.0 | 6.0 | 0.00 | 0.07 | 0.07 | 74 | 1009.2 |
| 20260510093541 | 68 | 109 | 3.0 | 6.0 | 0.00 | 0.07 | 0.07 | 74 | 1009.2 |
| 20260510093041 | 67 | 90 | 0.0 | 6.0 | 0.00 | 0.07 | 0.07 | 74 | 1009.1 |
| 20260510092541 | 67 | 96 | 4.0 | 6.0 | 0.00 | 0.07 | 0.07 | 74 | 1009.1 |
| 20260510092040 | 67 | 133 | 1.0 | 4.0 | 0.00 | 0.07 | 0.07 | 77 | 1009.0 |
| 20260510091541 | 66 | 128 | 2.0 | 6.0 | 0.00 | 0.07 | 0.07 | 77 | 1009.1 |
| 20260510091345 | 66 | 99 | 3.0 | 6.0 | 0.00 | 0.07 | 0.07 | 77 | 1009.0 |
| 20260510090540 | 65 | 66 | 3.0 | 6.0 | 0.00 | 0.07 | 0.07 | 77 | 1009.0 |
| 20260510090041 | 66 | 103 | 3.0 | 6.0 | 0.00 | 0.07 | 0.07 | 74 | 1008.9 |
| 20260510085540 | 66 | 117 | 1.0 | 4.0 | 0.00 | 0.07 | 0.07 | 79 | 1009.0 |
| 20260510085042 | 65 | 113 | 1.0 | 5.0 | 0.00 | 0.07 | 0.07 | 80 | 1009.0 |
| 20260510084540 | 64 | 80 | 1.0 | 5.0 | 0.00 | 0.07 | 0.07 | 81 | 1009.0 |
| 20260510084041 | 64 | 106 | 1.0 | 6.0 | 0.00 | 0.07 | 0.07 | 81 | 1009.0 |
| 20260510083552 | 64 | 97 | 3.0 | 6.0 | 0.00 | 0.07 | 0.07 | 79 | 1008.9 |
| 20260510083040 | 64 | 111 | 4.0 | 6.0 | 0.00 | 0.07 | 0.07 | 80 | 1009.0 |
| 20260510082539 | 63 | 99 | 0.0 | 6.0 | 0.00 | 0.07 | 0.07 | 83 | 1008.9 |
| 20260510082038 | 63 | 104 | 4.0 | 6.0 | 0.00 | 0.07 | 0.07 | 82 | 1008.9 |
| 20260510081539 | 62 | 90 | 2.0 | 5.0 | 0.00 | 0.07 | 0.07 | 83 | 1008.8 |
| 20260510081038 | 62 | 90 | 2.0 | 5.0 | 0.00 | 0.07 | 0.07 | 81 | 1008.7 |
| 20260510080539 | 62 | 103 | 3.0 | 5.0 | 0.00 | 0.07 | 0.07 | 84 | 1008.9 |
| 20260510080039 | 61 | 96 | 3.0 | 5.0 | 0.00 | 0.07 | 0.07 | 83 | 1008.8 |
| 20260510075540 | 61 | 102 | 3.0 | 6.0 | 0.00 | 0.07 | 0.07 | 84 | 1008.7 |
| 20260510075038 | 60 | 104 | 4.0 | 6.0 | 0.00 | 0.07 | 0.07 | 84 | 1008.7 |
| 20260510074539 | 60 | 99 | 4.0 | 6.0 | 0.00 | 0.07 | 0.07 | 85 | 1008.6 |
| 20260510074345 | 60 | 120 | 4.0 | 9.0 | 0.00 | 0.07 | 0.07 | 85 | 1008.6 |
| 20260510073538 | 59 | 102 | 3.0 | 9.0 | 0.00 | 0.07 | 0.07 | 88 | 1008.6 |
| 20260510073038 | 59 | 110 | 4.0 | 6.0 | 0.00 | 0.07 | 0.07 | 87 | 1008.5 |
| 20260510072659 | 58 | 125 | 3.0 | 7.0 | 0.00 | 0.07 | 0.07 | 90 | 1008.5 |
| 20260510072630 | 58 | 124 | 3.0 | 7.0 | 0.00 | 0.07 | 0.07 | 88 | 1008.5 |
| 20260510071537 | 58 | 109 | 2.0 | 7.0 | 0.00 | 0.07 | 0.07 | 90 | 1008.4 |
| 20260510071039 | 57 | 107 | 2.0 | 7.0 | 0.00 | 0.07 | 0.07 | 91 | 1008.3 |
| 20260510070537 | 57 | 107 | 4.0 | 7.0 | 0.00 | 0.07 | 0.07 | 91 | 1008.3 |
| 20260510070038 | 56 | 86 | 3.0 | 9.0 | 0.00 | 0.07 | 0.07 | 93 | 1008.4 |
| 20260510065537 | 55 | 82 | 4.0 | 9.0 | 0.00 | 0.07 | 0.07 | 94 | 1008.4 |
| 20260510065343 | 55 | 96 | 3.0 | 6.0 | 0.00 | 0.07 | 0.07 | 94 | 1008.4 |
| 20260510064849 | 55 | 110 | 4.0 | 9.0 | 0.00 | 0.07 | 0.07 | 94 | 1008.4 |
| 20260510064036 | 54 | 102 | 4.0 | 9.0 | 0.00 | 0.07 | 0.07 | 94 | 1008.4 |
| 20260510063538 | 54 | 120 | 3.0 | 7.0 | 0.00 | 0.07 | 0.07 | 94 | 1008.4 |
| 20260510063036 | 54 | 102 | 3.0 | 6.0 | 0.00 | 0.07 | 0.07 | 95 | 1008.4 |
| 20260510062538 | 54 | 104 | 2.0 | 6.0 | 0.00 | 0.07 | 0.07 | 95 | 1008.4 |
| 20260510062036 | 54 | 104 | 3.0 | 9.0 | 0.00 | 0.07 | 0.07 | 95 | 1008.4 |
| 20260510061536 | 54 | 121 | 4.0 | 9.0 | 0.00 | 0.07 | 0.07 | 95 | 1008.5 |
| 20260510061037 | 53 | 109 | 4.0 | 6.0 | 0.00 | 0.07 | 0.07 | 95 | 1008.4 |
| 20260510060536 | 53 | 65 | 2.0 | 10.0 | 0.00 | 0.07 | 0.07 | 95 | 1008.4 |
| 20260510060037 | 53 | 94 | 4.0 | 10.0 | 0.00 | 0.07 | 0.07 | 95 | 1008.5 |
| 20260510055534 | 53 | 106 | 4.0 | 7.0 | 0.00 | 0.07 | 0.07 | 95 | 1008.5 |
| 20260510055036 | 53 | 85 | 3.0 | 6.0 | 0.00 | 0.07 | 0.07 | 95 | 1008.5 |
| 20260510054535 | 53 | 71 | 3.0 | 6.0 | 0.00 | 0.07 | 0.07 | 95 | 1008.5 |
| 20260510054036 | 53 | 107 | 2.0 | 5.0 | 0.00 | 0.07 | 0.07 | 95 | 1008.5 |
| 20260510053535 | 53 | 109 | 2.0 | 5.0 | 0.00 | 0.07 | 0.07 | 95 | 1008.5 |
| 20260510053037 | 53 | 104 | 2.0 | 3.0 | 0.00 | 0.07 | 0.07 | 95 | 1008.5 |
| 20260510052536 | 53 | 93 | 1.0 | 2.0 | 0.00 | 0.07 | 0.07 | 95 | 1008.4 |
| 20260510052035 | 53 | 102 | 1.0 | 3.0 | 0.00 | 0.07 | 0.07 | 95 | 1008.5 |
| 20260510051536 | 53 | 93 | 2.0 | 3.0 | 0.00 | 0.07 | 0.07 | 95 | 1008.5 |
| 20260510051033 | 53 | 87 | 1.0 | 3.0 | 0.00 | 0.07 | 0.07 | 95 | 1008.4 |
| 20260510050535 | 53 | 99 | 1.0 | 4.0 | 0.00 | 0.07 | 0.07 | 95 | 1008.4 |
| 20260510050034 | 53 | 104 | 2.0 | 4.0 | 0.00 | 0.07 | 0.07 | 95 | 1008.4 |
| 20260510045536 | 53 | 94 | 1.0 | 4.0 | 0.00 | 0.07 | 0.07 | 94 | 1008.4 |
| 20260510045033 | 53 | 104 | 1.0 | 2.0 | 0.00 | 0.07 | 0.07 | 94 | 1008.4 |
| 20260510044533 | 53 | 96 | 0.0 | 3.0 | 0.00 | 0.07 | 0.07 | 94 | 1008.4 |
| 20260510044035 | 53 | 103 | 2.0 | 3.0 | 0.00 | 0.07 | 0.07 | 94 | 1008.5 |
| 20260510043839 | 53 | 111 | 1.0 | 3.0 | 0.00 | 0.07 | 0.07 | 94 | 1008.5 |
| 20260510043035 | 53 | 96 | 1.0 | 3.0 | 0.00 | 0.07 | 0.07 | 94 | 1008.5 |
| 20260510042841 | 53 | 96 | 1.0 | 3.0 | 0.00 | 0.07 | 0.07 | 94 | 1008.5 |
| 20260510042034 | 53 | 93 | 1.0 | 4.0 | 0.00 | 0.07 | 0.07 | 94 | 1008.5 |
| 20260510041533 | 53 | 117 | 2.0 | 4.0 | 0.00 | 0.07 | 0.07 | 94 | 1008.6 |
| 20260510041035 | 53 | 113 | 2.0 | 4.0 | 0.00 | 0.07 | 0.07 | 94 | 1008.6 |
| 20260510040532 | 54 | 94 | 2.0 | 5.0 | 0.00 | 0.07 | 0.07 | 94 | 1008.6 |
| 20260510040033 | 54 | 97 | 3.0 | 5.0 | 0.00 | 0.07 | 0.07 | 94 | 1008.6 |
| 20260510035534 | 54 | 127 | 2.0 | 4.0 | 0.00 | 0.07 | 0.07 | 94 | 1008.7 |
| 20260510035032 | 54 | 114 | 2.0 | 5.0 | 0.00 | 0.07 | 0.07 | 94 | 1008.7 |
| 20260510034534 | 54 | 103 | 2.0 | 5.0 | 0.00 | 0.07 | 0.07 | 94 | 1008.7 |
| 20260510034035 | 54 | 102 | 2.0 | 4.0 | 0.00 | 0.07 | 0.07 | 94 | 1008.7 |
| 20260510033534 | 54 | 99 | 0.0 | 5.0 | 0.00 | 0.07 | 0.07 | 94 | 1008.8 |
| 20260510033032 | 54 | 107 | 2.0 | 5.0 | 0.00 | 0.07 | 0.07 | 94 | 1008.8 |
| 20260510032531 | 54 | 94 | 1.0 | 3.0 | 0.00 | 0.07 | 0.07 | 94 | 1009.0 |
| 20260510032032 | 54 | 94 | 0.0 | 2.0 | 0.00 | 0.07 | 0.07 | 94 | 1008.9 |
| 20260510031531 | 54 | 96 | 0.0 | 3.0 | 0.00 | 0.07 | 0.07 | 93 | 1008.9 |
| 20260510031033 | 54 | 97 | 0.0 | 3.0 | 0.00 | 0.07 | 0.07 | 93 | 1009.0 |
| 20260510030837 | 54 | 65 | 1.0 | 3.0 | 0.00 | 0.07 | 0.07 | 93 | 1009.0 |
| 20260510030341 | 54 | 96 | 1.0 | 3.0 | 0.00 | 0.07 | 0.07 | 93 | 1008.9 |
| 20260510025531 | 54 | 109 | 1.0 | 3.0 | 0.00 | 0.07 | 0.07 | 93 | 1009.0 |
| 20260510025035 | 54 | 104 | 1.0 | 4.0 | 0.00 | 0.07 | 0.07 | 93 | 1009.0 |
| 20260510024530 | 54 | 96 | 2.0 | 4.0 | 0.00 | 0.07 | 0.07 | 93 | 1009.0 |
| 20260510024032 | 54 | 114 | 2.0 | 4.0 | 0.00 | 0.07 | 0.07 | 92 | 1009.0 |
| 20260510023531 | 54 | 100 | 1.0 | 2.0 | 0.00 | 0.07 | 0.07 | 92 | 1009.1 |
| 20260510023031 | 54 | 106 | 0.0 | 2.0 | 0.00 | 0.07 | 0.07 | 92 | 1009.1 |
| 20260510022531 | 54 | 96 | 0.0 | 1.0 | 0.00 | 0.07 | 0.07 | 91 | 1009.1 |
| 20260510022031 | 54 | 96 | 0.0 | 1.0 | 0.00 | 0.07 | 0.07 | 91 | 1009.0 |
| 20260510021531 | 54 | 96 | 0.0 | 2.0 | 0.00 | 0.07 | 0.07 | 91 | 1009.0 |
| 20260510021344 | 55 | 96 | 1.0 | 2.0 | 0.00 | 0.07 | 0.07 | 91 | 1009.0 |
| 20260510020531 | 55 | 104 | 1.0 | 2.0 | 0.00 | 0.07 | 0.07 | 91 | 1009.1 |
| 20260510020030 | 55 | 99 | 0.0 | 2.0 | 0.00 | 0.07 | 0.07 | 91 | 1009.2 |
| 20260510015529 | 55 | 93 | 1.0 | 2.0 | 0.00 | 0.07 | 0.07 | 90 | 1009.2 |
| 20260510015031 | 55 | 99 | 0.0 | 5.0 | 0.00 | 0.07 | 0.07 | 90 | 1009.2 |
| 20260510014528 | 55 | 118 | 1.0 | 5.0 | 0.00 | 0.07 | 0.07 | 90 | 1009.2 |
| 20260510014345 | 55 | 116 | 1.0 | 2.0 | 0.00 | 0.07 | 0.07 | 90 | 1009.1 |
| 20260510013530 | 55 | 110 | 1.0 | 2.0 | 0.00 | 0.07 | 0.07 | 90 | 1009.1 |
| 20260510013032 | 55 | 89 | 0.0 | 1.0 | 0.00 | 0.07 | 0.07 | 89 | 1009.1 |
| 20260510012528 | 55 | 87 | 0.0 | 4.0 | 0.00 | 0.07 | 0.07 | 89 | 1009.2 |
| 20260510012031 | 55 | 114 | 1.0 | 4.0 | 0.00 | 0.07 | 0.07 | 89 | 1009.2 |
| 20260510011529 | 55 | 114 | 2.0 | 4.0 | 0.00 | 0.07 | 0.07 | 89 | 1009.3 |
| 20260510011028 | 55 | 102 | 1.0 | 7.0 | 0.00 | 0.07 | 0.07 | 88 | 1009.3 |
| 20260510010529 | 56 | 86 | 4.0 | 11.0 | 0.00 | 0.07 | 0.07 | 88 | 1009.3 |
| 20260510010030 | 56 | 116 | 5.0 | 11.0 | 0.00 | 0.07 | 0.07 | 87 | 1009.2 |
| 20260510005531 | 56 | 110 | 4.0 | 7.0 | 0.00 | 0.07 | 0.07 | 87 | 1009.2 |
| 20260510005029 | 56 | 55 | 2.0 | 10.0 | 0.00 | 0.07 | 0.07 | 86 | 1009.2 |
| 20260510004530 | 56 | 110 | 4.0 | 11.0 | 0.00 | 0.07 | 0.07 | 86 | 1009.3 |
| 20260510004027 | 56 | 93 | 5.0 | 11.0 | 0.00 | 0.07 | 0.07 | 87 | 1009.4 |
| 20260510003837 | 56 | 94 | 5.0 | 9.0 | 0.00 | 0.07 | 0.07 | 87 | 1009.5 |
| 20260510003029 | 56 | 116 | 4.0 | 9.0 | 0.00 | 0.07 | 0.07 | 87 | 1009.6 |
| 20260510002529 | 56 | 137 | 5.0 | 9.0 | 0.00 | 0.07 | 0.07 | 87 | 1009.5 |
| 20260510002028 | 56 | 99 | 3.0 | 7.0 | 0.00 | 0.07 | 0.07 | 89 | 1009.6 |
| 20260510001832 | 56 | 102 | 2.0 | 4.0 | 0.00 | 0.07 | 0.07 | 90 | 1009.7 |
| 20260510001028 | 56 | 123 | 1.0 | 4.0 | 0.01 | 0.07 | 0.07 | 91 | 1009.7 |
| 20260510000540 | 56 | 85 | 2.0 | 4.0 | 0.01 | 0.07 | 0.07 | 91 | 1009.7 |
| 20260510000030 | 55 | 117 | 0.0 | 1.0 | 0.01 | 0.07 | 0.07 | 92 | 1009.8 |
| 20260509235526 | 55 | 106 | 0.0 | 1.0 | 0.01 | 0.07 | 0.07 | 92 | 1009.9 |
| 20260509235026 | 55 | 106 | 0.0 | 1.0 | 0.01 | 0.07 | 0.07 | 92 | 1010.0 |
| 20260509234528 | 55 | 106 | 0.0 | 1.0 | 0.03 | 0.07 | 0.07 | 92 | 1010.1 |
| 20260509234028 | 55 | 106 | 0.0 | 0.0 | 0.05 | 0.07 | 0.07 | 92 | 1009.9 |
| 20260509233835 | 55 | 106 | 0.0 | 0.0 | 0.07 | 0.07 | 0.07 | 92 | 1009.9 |
| 20260509233026 | 55 | 106 | 0.0 | 0.0 | 0.07 | 0.07 | 0.07 | 91 | 1009.9 |
| 20260509232529 | 55 | 106 | 0.0 | 0.0 | 0.07 | 0.07 | 0.07 | 91 | 1009.9 |
| 20260509232026 | 56 | 106 | 0.0 | 0.0 | 0.07 | 0.07 | 0.07 | 91 | 1009.9 |
| 20260509231527 | 56 | 106 | 0.0 | 0.0 | 0.07 | 0.07 | 0.07 | 91 | 1010.0 |
| 20260509231026 | 56 | 106 | 0.0 | 0.0 | 0.06 | 0.06 | 0.06 | 90 | 1010.1 |
| 20260509230526 | 56 | 106 | 0.0 | 0.0 | 0.06 | 0.06 | 0.06 | 89 | 1010.1 |
| 20260509230153 | 56 | 106 | 0.0 | 1.0 | 0.06 | 0.06 | 0.06 | 88 | 1010.0 |
| 20260509230122 | 56 | 106 | 0.0 | 1.0 | 0.06 | 0.06 | 0.06 | 89 | 1010.2 |
| 20260509225027 | 57 | 107 | 0.0 | 1.0 | 0.06 | 0.06 | 0.06 | 88 | 1010.0 |
| 20260509224525 | 57 | 107 | 0.0 | 1.0 | 0.04 | 0.04 | 0.05 | 86 | 1010.0 |
| 20260509224028 | 57 | 107 | 0.0 | 1.0 | 0.02 | 0.02 | 0.02 | 85 | 1010.0 |
| 20260509223525 | 57 | 107 | 0.0 | 0.0 | 0.00 | 0.00 | 0.00 | 84 | 1009.9 |
| 20260509223027 | 57 | 107 | 0.0 | 0.0 | 0.00 | 0.00 | 0.00 | 84 | 1010.1 |
| 20260509222842 | 57 | 107 | 0.0 | 0.0 | 0.00 | 0.00 | 0.00 | 83 | 1009.9 |
| 20260509222026 | 57 | 107 | 0.0 | 0.0 | 0.00 | 0.00 | 0.00 | 83 | 1010.0 |
| 20260509221526 | 57 | 107 | 0.0 | 0.0 | 0.00 | 0.00 | 0.00 | 83 | 1009.9 |
| 20260509221025 | 57 | 107 | 0.0 | 0.0 | 0.00 | 0.00 | 0.00 | 83 | 1009.8 |
| 20260509220526 | 57 | 107 | 0.0 | 0.0 | 0.00 | 0.00 | 0.00 | 82 | 1009.8 |
| 20260509220024 | 57 | 107 | 0.0 | 1.0 | 0.00 | 0.00 | 0.00 | 82 | 1009.7 |
| 20260509215527 | 57 | 107 | 0.0 | 1.0 | 0.00 | 0.00 | 0.00 | 82 | 1009.7 |
| 20260509215024 | 57 | 107 | 0.0 | 0.0 | 0.00 | 0.00 | 0.00 | 81 | 1009.6 |
| 20260509214837 | 57 | 107 | 0.0 | 1.0 | 0.00 | 0.00 | 0.00 | 81 | 1009.7 |
| 20260509214025 | 57 | 107 | 0.0 | 1.0 | 0.00 | 0.00 | 0.00 | 81 | 1009.8 |
| 20260509213526 | 57 | 107 | 1.0 | 1.0 | 0.00 | 0.00 | 0.00 | 80 | 1009.8 |
| 20260509213027 | 58 | 107 | 1.0 | 1.0 | 0.00 | 0.00 | 0.00 | 80 | 1009.6 |
| 20260509212524 | 58 | 107 | 0.0 | 1.0 | 0.00 | 0.00 | 0.00 | 79 | 1009.4 |
| 20260509212026 | 58 | 109 | 0.0 | 4.0 | 0.00 | 0.00 | 0.00 | 79 | 1009.3 |
| 20260509211526 | 58 | 111 | 1.0 | 4.0 | 0.00 | 0.00 | 0.00 | 79 | 1009.2 |
| 20260509211026 | 58 | 100 | 1.0 | 2.0 | 0.00 | 0.00 | 0.00 | 78 | 1009.1 |
| 20260509210841 | 58 | 97 | 0.0 | 1.0 | 0.00 | 0.00 | 0.00 | 78 | 1009.1 |
| 20260509210025 | 58 | 97 | 0.0 | 1.0 | 0.00 | 0.00 | 0.00 | 78 | 1009.1 |
| 20260509205526 | 58 | 104 | 0.0 | 1.0 | 0.00 | 0.00 | 0.00 | 78 | 1009.1 |
| 20260509205037 | 59 | 104 | 0.0 | 1.0 | 0.00 | 0.00 | 0.00 | 77 | 1009.1 |
| 20260509204854 | 59 | 104 | 0.0 | 0.0 | 0.00 | 0.00 | 0.00 | 77 | 1009.1 |
| 20260509204024 | 59 | 104 | 0.0 | 1.0 | 0.00 | 0.00 | 0.00 | 76 | 1009.0 |
| 20260509203526 | 59 | 104 | 0.0 | 1.0 | 0.00 | 0.00 | 0.00 | 77 | 1009.0 |
| 20260509203023 | 59 | 99 | 0.0 | 3.0 | 0.00 | 0.00 | 0.00 | 76 | 1009.0 |
| 20260509202525 | 59 | 99 | 0.0 | 4.0 | 0.00 | 0.00 | 0.00 | 76 | 1009.0 |
| 20260509202024 | 59 | 123 | 2.0 | 4.0 | 0.00 | 0.00 | 0.00 | 76 | 1008.9 |
| 20260509201849 | 59 | 89 | 2.0 | 4.0 | 0.00 | 0.00 | 0.00 | 76 | 1008.7 |
| 20260509201024 | 59 | 111 | 2.0 | 3.0 | 0.00 | 0.00 | 0.00 | 76 | 1008.8 |
| 20260509200523 | 59 | 90 | 2.0 | 4.0 | 0.00 | 0.00 | 0.00 | 75 | 1008.7 |
| 20260509200024 | 59 | 104 | 2.0 | 4.0 | 0.00 | 0.00 | 0.00 | 75 | 1008.7 |
| 20260509195524 | 60 | 100 | 2.0 | 6.0 | 0.00 | 0.00 | 0.00 | 75 | 1008.7 |
| 20260509195025 | 60 | 104 | 2.0 | 6.0 | 0.00 | 0.00 | 0.00 | 74 | 1008.6 |
| 20260509194833 | 60 | 117 | 3.0 | 5.0 | 0.00 | 0.00 | 0.00 | 74 | 1008.6 |
| 20260509194026 | 60 | 110 | 3.0 | 10.0 | 0.00 | 0.00 | 0.00 | 74 | 1008.5 |
| 20260509193524 | 60 | 94 | 3.0 | 10.0 | 0.00 | 0.00 | 0.00 | 74 | 1008.5 |
| 20260509193242 | 60 | 89 | 4.0 | 10.0 | 0.00 | 0.00 | 0.00 | 74 | 1008.3 |
| 20260509193149 | 60 | 103 | 4.0 | 7.0 | 0.00 | 0.00 | 0.00 | 74 | 1008.5 |
| 20260509192023 | 60 | 89 | 4.0 | 10.0 | 0.00 | 0.00 | 0.00 | 74 | 1008.2 |
| 20260509191522 | 60 | 97 | 5.0 | 9.0 | 0.00 | 0.00 | 0.00 | 74 | 1008.2 |
| 20260509191025 | 61 | 92 | 5.0 | 13.0 | 0.00 | 0.00 | 0.00 | 74 | 1008.2 |
| 20260509190522 | 61 | 104 | 5.0 | 13.0 | 0.00 | 0.00 | 0.00 | 75 | 1008.1 |
| 20260509190028 | 61 | 100 | 5.0 | 11.0 | 0.00 | 0.00 | 0.00 | 75 | 1008.0 |
| 20260509185850 | 61 | 103 | 5.0 | 11.0 | 0.00 | 0.00 | 0.00 | 75 | 1007.9 |
| 20260509185021 | 61 | 96 | 6.0 | 11.0 | 0.00 | 0.01 | 0.00 | 75 | 1008.0 |
| 20260509184520 | 61 | 94 | 4.0 | 9.0 | 0.00 | 0.01 | 0.00 | 76 | 1007.9 |
| 20260509184024 | 61 | 94 | 5.0 | 9.0 | 0.00 | 0.01 | 0.00 | 76 | 1007.8 |
| 20260509183521 | 62 | 87 | 4.0 | 7.0 | 0.00 | 0.02 | 0.00 | 76 | 1007.9 |
| 20260509183022 | 62 | 121 | 4.0 | 7.0 | 0.00 | 0.02 | 0.00 | 76 | 1007.7 |
| 20260509182522 | 62 | 86 | 3.0 | 7.0 | 0.00 | 0.02 | 0.00 | 76 | 1007.6 |
| 20260509182022 | 62 | 102 | 5.0 | 7.0 | 0.00 | 0.02 | 0.00 | 75 | 1007.8 |
| 20260509181522 | 62 | 96 | 3.0 | 11.0 | 0.00 | 0.02 | 0.00 | 76 | 1007.7 |
| 20260509181023 | 62 | 114 | 5.0 | 11.0 | 0.00 | 0.02 | 0.00 | 75 | 1007.7 |
| 20260509180520 | 62 | 100 | 5.0 | 11.0 | 0.00 | 0.02 | 0.00 | 75 | 1007.7 |
| 20260509180019 | 63 | 110 | 5.0 | 12.0 | 0.00 | 0.02 | 0.00 | 75 | 1007.7 |
| 20260509175523 | 63 | 111 | 5.0 | 12.0 | 0.00 | 0.02 | 0.00 | 75 | 1007.8 |
| 20260509175020 | 63 | 103 | 5.0 | 15.0 | 0.00 | 0.02 | 0.00 | 75 | 1007.7 |
| 20260509174522 | 63 | 79 | 6.0 | 15.0 | 0.00 | 0.02 | 0.00 | 74 | 1007.8 |
| 20260509174020 | 63 | 114 | 7.0 | 15.0 | 0.00 | 0.02 | 0.00 | 75 | 1007.8 |
| 20260509173522 | 64 | 100 | 7.0 | 15.0 | 0.00 | 0.02 | 0.00 | 74 | 1007.8 |
| 20260509173022 | 64 | 121 | 9.0 | 13.0 | 0.00 | 0.02 | 0.00 | 74 | 1007.9 |
| 20260509172519 | 64 | 133 | 7.0 | 12.0 | 0.00 | 0.02 | 0.00 | 75 | 1007.9 |
| 20260509172020 | 64 | 123 | 7.0 | 12.0 | 0.00 | 0.02 | 0.00 | 74 | 1007.9 |
| 20260509171517 | 64 | 76 | 4.0 | 14.0 | 0.00 | 0.02 | 0.00 | 75 | 1007.8 |
| 20260509171330 | 64 | 114 | 6.0 | 14.0 | 0.00 | 0.02 | 0.00 | 75 | 1007.9 |
| 20260509170842 | 64 | 107 | 6.0 | 12.0 | 0.00 | 0.02 | 0.00 | 74 | 1007.9 |
| 20260509170021 | 64 | 117 | 6.0 | 9.0 | 0.00 | 0.02 | 0.00 | 75 | 1007.9 |
| 20260509165518 | 64 | 124 | 4.0 | 11.0 | 0.00 | 0.02 | 0.00 | 75 | 1007.9 |
| 20260509165021 | 64 | 117 | 7.0 | 11.0 | 0.00 | 0.02 | 0.00 | 75 | 1007.9 |
| 20260509164519 | 64 | 102 | 6.0 | 15.0 | 0.00 | 0.02 | 0.00 | 75 | 1008.1 |
| 20260509164018 | 64 | 100 | 8.0 | 15.0 | 0.00 | 0.02 | 0.00 | 75 | 1008.1 |
| 20260509163533 | 64 | 121 | 7.0 | 14.0 | 0.00 | 0.02 | 0.00 | 75 | 1008.2 |
| 20260509163125 | 64 | 113 | 9.0 | 14.0 | 0.00 | 0.02 | 0.00 | 75 | 1008.3 |
| 20260509162018 | 64 | 135 | 9.0 | 15.0 | 0.00 | 0.02 | 0.00 | 75 | 1008.2 |
| 20260509161519 | 65 | 96 | 5.0 | 16.0 | 0.00 | 0.02 | 0.00 | 76 | 1008.3 |
| 20260509161337 | 65 | 59 | 8.0 | 16.0 | 0.00 | 0.02 | 0.00 | 75 | 1008.3 |
| 20260509160518 | 65 | 72 | 7.0 | 14.0 | 0.00 | 0.02 | 0.00 | 75 | 1008.2 |
| 20260509160017 | 64 | 97 | 8.0 | 18.0 | 0.00 | 0.02 | 0.00 | 75 | 1008.2 |
| 20260509155517 | 65 | 120 | 8.0 | 18.0 | 0.00 | 0.02 | 0.00 | 75 | 1008.2 |
| 20260509155017 | 65 | 113 | 9.0 | 16.0 | 0.00 | 0.02 | 0.00 | 74 | 1008.3 |
| 20260509154519 | 65 | 92 | 8.0 | 17.0 | 0.00 | 0.02 | 0.00 | 74 | 1008.4 |
| 20260509154019 | 65 | 71 | 10.0 | 17.0 | 0.00 | 0.02 | 0.00 | 73 | 1008.3 |
| 20260509153516 | 65 | 128 | 9.0 | 16.0 | 0.00 | 0.02 | 0.00 | 73 | 1008.3 |
| 20260509153019 | 65 | 89 | 8.0 | 16.0 | 0.00 | 0.02 | 0.00 | 73 | 1008.1 |
| 20260509152516 | 65 | 102 | 9.0 | 14.0 | 0.00 | 0.02 | 0.00 | 73 | 1008.1 |
| 20260509152015 | 66 | 90 | 8.0 | 17.0 | 0.00 | 0.02 | 0.00 | 73 | 1008.1 |
| 20260509151518 | 66 | 116 | 9.0 | 17.0 | 0.00 | 0.02 | 0.00 | 72 | 1008.2 |
| 20260509151016 | 66 | 116 | 10.0 | 16.0 | 0.00 | 0.02 | 0.00 | 72 | 1008.3 |
| 20260509150826 | 66 | 96 | 8.0 | 16.0 | 0.00 | 0.02 | 0.00 | 72 | 1008.3 |
| 20260509150014 | 66 | 104 | 9.0 | 15.0 | 0.00 | 0.02 | 0.00 | 72 | 1008.3 |
| 20260509145515 | 66 | 90 | 6.0 | 17.0 | 0.00 | 0.02 | 0.00 | 73 | 1008.3 |
| 20260509145014 | 66 | 110 | 10.0 | 17.0 | 0.00 | 0.02 | 0.00 | 72 | 1008.4 |
| 20260509144516 | 67 | 110 | 9.0 | 15.0 | 0.00 | 0.02 | 0.00 | 73 | 1008.5 |
| 20260509144321 | 67 | 110 | 8.0 | 17.0 | 0.00 | 0.02 | 0.00 | 71 | 1008.6 |
| 20260509143511 | 67 | 93 | 9.0 | 17.0 | 0.00 | 0.02 | 0.00 | 69 | 1008.6 |
| 20260509143012 | 67 | 85 | 9.0 | 16.0 | 0.00 | 0.02 | 0.00 | 69 | 1008.7 |
| 20260509142516 | 67 | 102 | 10.0 | 16.0 | 0.00 | 0.02 | 0.00 | 69 | 1008.9 |
| 20260509142017 | 67 | 117 | 9.0 | 16.0 | 0.00 | 0.02 | 0.00 | 68 | 1008.9 |
| 20260509141513 | 67 | 93 | 10.0 | 16.0 | 0.00 | 0.02 | 0.00 | 68 | 1008.9 |
| 20260509141015 | 68 | 96 | 10.0 | 16.0 | 0.00 | 0.02 | 0.00 | 68 | 1008.8 |
| 20260509140513 | 68 | 89 | 9.0 | 17.0 | 0.00 | 0.02 | 0.00 | 68 | 1008.9 |
| 20260509140328 | 68 | 106 | 10.0 | 17.0 | 0.00 | 0.02 | 0.00 | 68 | 1009.0 |
| 20260509135513 | 68 | 130 | 9.0 | 17.0 | 0.00 | 0.02 | 0.00 | 69 | 1008.9 |
| 20260509135321 | 68 | 120 | 8.0 | 17.0 | 0.00 | 0.02 | 0.00 | 68 | 1009.0 |
| 20260509134512 | 68 | 110 | 7.0 | 13.0 | 0.00 | 0.02 | 0.00 | 69 | 1009.0 |
| 20260509134321 | 68 | 121 | 9.0 | 18.0 | 0.00 | 0.02 | 0.00 | 70 | 1009.0 |
| 20260509133514 | 68 | 99 | 9.0 | 18.0 | 0.00 | 0.02 | 0.00 | 69 | 1009.0 |
| 20260509133013 | 68 | 102 | 7.0 | 15.0 | 0.00 | 0.02 | 0.00 | 70 | 1009.1 |
| 20260509132514 | 68 | 63 | 9.0 | 15.0 | 0.00 | 0.02 | 0.00 | 70 | 1009.2 |
| 20260509132124 | 68 | 93 | 11.0 | 15.0 | 0.00 | 0.02 | 0.00 | 70 | 1009.3 |
| 20260509132119 | 68 | 111 | 10.0 | 15.0 | 0.00 | 0.02 | 0.00 | 72 | 1009.4 |
| 20260509132113 | 68 | 104 | 8.0 | 14.0 | 0.00 | 0.02 | 0.00 | 71 | 1009.2 |
| 20260509132049 | 68 | 113 | 9.0 | 15.0 | 0.00 | 0.02 | 0.00 | 70 | 1009.2 |
| 20260509130012 | 68 | 96 | 9.0 | 15.0 | 0.00 | 0.02 | 0.00 | 72 | 1009.4 |
| 20260509125512 | 68 | 63 | 9.0 | 19.0 | 0.00 | 0.02 | 0.00 | 71 | 1009.4 |
| 20260509125012 | 68 | 111 | 9.0 | 19.0 | 0.00 | 0.02 | 0.00 | 72 | 1009.4 |
| 20260509124511 | 68 | 113 | 10.0 | 17.0 | 0.00 | 0.02 | 0.00 | 71 | 1009.5 |
| 20260509124013 | 68 | 113 | 8.0 | 15.0 | 0.00 | 0.02 | 0.00 | 73 | 1009.4 |
| 20260509123512 | 68 | 124 | 9.0 | 15.0 | 0.00 | 0.02 | 0.00 | 73 | 1009.4 |
| 20260509123011 | 68 | 89 | 8.0 | 15.0 | 0.00 | 0.02 | 0.00 | 72 | 1009.4 |
| 20260509122510 | 68 | 104 | 11.0 | 15.0 | 0.00 | 0.02 | 0.00 | 70 | 1009.5 |
| 20260509122011 | 69 | 118 | 10.0 | 15.0 | 0.00 | 0.02 | 0.00 | 70 | 1009.4 |
| 20260509121511 | 69 | 96 | 6.0 | 14.0 | 0.00 | 0.02 | 0.00 | 71 | 1009.4 |
| 20260509121010 | 69 | 121 | 9.0 | 13.0 | 0.00 | 0.02 | 0.00 | 70 | 1009.4 |
| 20260509120513 | 69 | 125 | 8.0 | 16.0 | 0.00 | 0.02 | 0.00 | 69 | 1009.4 |
| 20260509120011 | 68 | 118 | 6.0 | 16.0 | 0.00 | 0.02 | 0.00 | 69 | 1009.4 |
| 20260509115513 | 68 | 114 | 10.0 | 16.0 | 0.00 | 0.02 | 0.00 | 70 | 1009.5 |
| 20260509115010 | 68 | 96 | 7.0 | 16.0 | 0.00 | 0.02 | 0.00 | 68 | 1009.7 |
| 20260509114510 | 68 | 78 | 9.0 | 16.0 | 0.00 | 0.02 | 0.00 | 68 | 1009.8 |
| 20260509114009 | 68 | 116 | 9.0 | 15.0 | 0.00 | 0.02 | 0.00 | 68 | 1009.9 |
| 20260509113509 | 68 | 93 | 6.0 | 14.0 | 0.00 | 0.02 | 0.00 | 68 | 1010.0 |
| 20260509113317 | 68 | 103 | 9.0 | 14.0 | 0.00 | 0.02 | 0.00 | 66 | 1010.1 |
| 20260509112519 | 68 | 117 | 8.0 | 12.0 | 0.00 | 0.02 | 0.00 | 68 | 1010.1 |
| 20260509112317 | 68 | 128 | 6.0 | 12.0 | 0.00 | 0.02 | 0.00 | 69 | 1010.2 |
| 20260509111509 | 67 | 107 | 6.0 | 12.0 | 0.00 | 0.02 | 0.00 | 70 | 1010.3 |
| 20260509111011 | 67 | 93 | 6.0 | 12.0 | 0.00 | 0.02 | 0.00 | 70 | 1010.3 |
| 20260509110509 | 67 | 109 | 8.0 | 12.0 | 0.00 | 0.02 | 0.00 | 70 | 1010.3 |
| 20260509110010 | 67 | 116 | 7.0 | 13.0 | 0.00 | 0.02 | 0.00 | 69 | 1010.4 |
| 20260509105635 | 67 | 107 | 5.0 | 15.0 | 0.00 | 0.02 | 0.00 | 72 | 1010.6 |
| 20260509105604 | 67 | 107 | 8.0 | 13.0 | 0.00 | 0.02 | 0.00 | 71 | 1010.5 |